カタログに戻る

FORMOSAT 3A

運用中気象LEO
NORAD 29047·PAYLOAD·🇹🇼 Taiwan

打ち上げ Apr 15, 2006 から Vandenberg Space Force Base

Loading…

次のパス (今後24時間)

TLE

最新Source: Space-Track

元期: Sep 14, 2026, 14:58 UTC

1 29047U 06011A   26257.62378891  .00000278  00000-0  11889-3 0  9993
2 29047  71.9763 127.9984 0046791  82.6544 277.9908 14.31453614 67202

AllMySatでFORMOSAT 3Aをリアルタイム追跡

Download on the App Store